Estación de Petorca
Ultimos registro cada 15 minutos 85
| N° | Estación | Fecha / Hora | Temperatura | Humedad | Lluvia | Velocidad | Dirección | Radiación | Presion |
| 85 | Petorca | 31-08-2026 21:00 | 12,6 | 79,9 | 0 | 0,5 | 11 | 0,6 | 990,6 |
| 84 | Petorca | 31-08-2026 20:45 | 12,7 | 80,2 | 0 | 1,5 | 10 | 0,6 | 990,4 |
| 83 | Petorca | 31-08-2026 20:30 | 12,9 | 80,4 | 0 | 0,5 | 22 | 0,6 | 990,3 |
| 82 | Petorca | 31-08-2026 20:15 | 12,9 | 80,6 | 0 | 0 | 354 | 0,6 | 990,4 |
| 81 | Petorca | 31-08-2026 20:00 | 12,9 | 80,3 | 0 | 0 | 1 | 0,6 | 990,3 |
| 80 | Petorca | 31-08-2026 19:45 | 13,1 | 79,3 | 0 | 0,5 | 10 | 0,6 | 990,2 |
| 79 | Petorca | 31-08-2026 19:30 | 13,5 | 78,6 | 0 | 0 | 352 | 0,6 | 990,1 |
| 78 | Petorca | 31-08-2026 19:15 | 13,7 | 78,4 | 0 | 0 | 355 | 0,6 | 989,9 |
| 77 | Petorca | 31-08-2026 19:00 | 14,4 | 75,4 | 0 | 0,5 | 10 | 0,6 | 989,8 |
| 76 | Petorca | 31-08-2026 18:45 | 14,4 | 75 | 0 | 0 | 45 | 0,6 | 989,9 |
| 75 | Petorca | 31-08-2026 18:30 | 14,9 | 75,2 | 0 | 0 | 15 | 3,1 | 989,8 |
| 74 | Petorca | 31-08-2026 18:15 | 16,4 | 67,2 | 0 | 0 | 334 | 8,1 | 989,9 |
| 73 | Petorca | 31-08-2026 18:00 | 17,1 | 63,3 | 0 | 0 | 286 | 13,1 | 990,1 |
| 72 | Petorca | 31-08-2026 17:45 | 17,8 | 62,1 | 0 | 0 | 247 | 18,1 | 989,9 |
| 71 | Petorca | 31-08-2026 17:30 | 20,3 | 53,7 | 0 | 0,5 | 251 | 25,6 | 989,8 |
| 70 | Petorca | 31-08-2026 17:15 | 21 | 53,1 | 0 | 0,5 | 254 | 265,6 | 989,6 |
| 69 | Petorca | 31-08-2026 17:00 | 21,3 | 53 | 0 | 1 | 243 | 296,9 | 989,7 |
| 68 | Petorca | 31-08-2026 16:45 | 22,7 | 49,3 | 0 | 0,5 | 261 | 281,9 | 989,4 |
| 67 | Petorca | 31-08-2026 16:30 | 21,8 | 54,4 | 0 | 1 | 246 | 414,4 | 989,2 |
| 66 | Petorca | 31-08-2026 16:15 | 21,7 | 52,6 | 0 | 0,5 | 240 | 375,6 | 989,2 |
| 65 | Petorca | 31-08-2026 16:00 | 21,1 | 54,9 | 0 | 1 | 233 | 511,9 | 989,3 |
| 64 | Petorca | 31-08-2026 15:45 | 21,6 | 50,3 | 0 | 1 | 225 | 365,6 | 989,4 |
| 63 | Petorca | 31-08-2026 15:30 | 22,2 | 47,4 | 0 | 0 | 199 | 409,4 | 989,5 |
| 62 | Petorca | 31-08-2026 15:15 | 22,3 | 48,1 | 0 | 0 | 264 | 660,6 | 989,4 |
| 61 | Petorca | 31-08-2026 15:00 | 20,4 | 53,8 | 0 | 0 | 209 | 88,1 | 989,7 |
| 60 | Petorca | 31-08-2026 14:45 | 20,9 | 49 | 0 | 0,5 | 248 | 79,4 | 989,7 |
| 59 | Petorca | 31-08-2026 14:30 | 21,2 | 52,3 | 0 | 0,5 | 229 | 349,4 | 990,2 |
| 58 | Petorca | 31-08-2026 14:15 | 21,3 | 49,1 | 0 | 0,5 | 219 | 741,9 | 990,1 |
| 57 | Petorca | 31-08-2026 14:00 | 22 | 47,8 | 0 | 0 | 236 | 758,1 | 990,3 |
| 56 | Petorca | 31-08-2026 13:45 | 21,5 | 46 | 0 | 0,5 | 227 | 769,4 | 990,5 |
| 55 | Petorca | 31-08-2026 13:30 | 21,6 | 48,5 | 0 | 0,5 | 191 | 773,1 | 990,6 |
| 54 | Petorca | 31-08-2026 13:15 | 20,9 | 52,5 | 0 | 0,5 | 230 | 779,4 | 990,8 |
| 53 | Petorca | 31-08-2026 13:00 | 21 | 49,4 | 0 | 0 | 239 | 785,6 | 991 |
| 52 | Petorca | 31-08-2026 12:45 | 20,9 | 53,9 | 0 | 0,5 | 250 | 785,6 | 991,2 |
| 51 | Petorca | 31-08-2026 12:30 | 20,6 | 52,2 | 0 | 0,5 | 298 | 779,4 | 991,4 |
| 50 | Petorca | 31-08-2026 12:15 | 20 | 50,6 | 0 | 0,5 | 265 | 774,4 | 991,4 |
| 49 | Petorca | 31-08-2026 12:00 | 19,9 | 55,1 | 0 | 0,5 | 239 | 761,9 | 991,8 |
| 48 | Petorca | 31-08-2026 11:45 | 19,2 | 60,9 | 0 | 0,5 | 233 | 745,6 | 992 |
| 47 | Petorca | 31-08-2026 11:30 | 18,4 | 64,3 | 0 | 1 | 201 | 726,9 | 992,1 |
| 46 | Petorca | 31-08-2026 11:15 | 17,9 | 66,2 | 0 | 1 | 192 | 704,4 | 992,4 |
| 45 | Petorca | 31-08-2026 11:00 | 19 | 62,1 | 0 | 0 | 286 | 679,4 | 992,4 |
| 44 | Petorca | 31-08-2026 10:45 | 17,3 | 63,2 | 0 | 0,5 | 222 | 654,4 | 992,7 |
| 43 | Petorca | 31-08-2026 10:30 | 17,3 | 65,4 | 0 | 0,5 | 256 | 618,1 | 993,1 |
| 42 | Petorca | 31-08-2026 10:15 | 17,2 | 63,6 | 0 | 0 | 154 | 580,6 | 993,3 |
| 41 | Petorca | 31-08-2026 10:00 | 17,9 | 66,1 | 0 | 0 | 183 | 546,9 | 993,3 |
| 40 | Petorca | 31-08-2026 09:45 | 16,6 | 64,8 | 0 | 0 | 299 | 578,1 | 993,1 |
| 39 | Petorca | 31-08-2026 09:30 | 16,4 | 65,9 | 0 | 0 | 227 | 475,6 | 993,1 |
| 38 | Petorca | 31-08-2026 09:15 | 15,2 | 73,6 | 0 | 0 | 220 | 286,9 | 993,2 |
| 37 | Petorca | 31-08-2026 09:00 | 14,5 | 74 | 0 | 0 | 140 | 254,4 | 993 |
| 36 | Petorca | 31-08-2026 08:45 | 14,3 | 77,4 | 0 | 0 | 110 | 325,6 | 992,8 |
| 35 | Petorca | 31-08-2026 08:30 | 12,9 | 83,6 | 0 | 0 | 70 | 265,6 | 992,5 |
| 34 | Petorca | 31-08-2026 08:15 | 11,1 | 87,2 | 0 | 1 | 39 | 211,9 | 992,4 |
| 33 | Petorca | 31-08-2026 08:00 | 9,2 | 92,9 | 0 | 1 | 21 | 18,1 | 992,1 |
| 32 | Petorca | 31-08-2026 07:45 | 9,2 | 93,5 | 0 | 1,5 | 18 | 18,1 | 992 |
| 31 | Petorca | 31-08-2026 07:30 | 8,8 | 94,6 | 0 | 1 | 11 | 14,4 | 991,9 |
| 30 | Petorca | 31-08-2026 07:15 | 9,1 | 94,8 | 0 | 1 | 14 | 4,4 | 991,6 |
| 29 | Petorca | 31-08-2026 07:00 | 9,1 | 95,2 | 0 | 1 | 7 | 1,9 | 991,5 |
| 28 | Petorca | 31-08-2026 06:45 | 9,1 | 95,7 | 0 | 1 | 13 | 0,6 | 991,4 |
| 27 | Petorca | 31-08-2026 06:30 | 9,5 | 96,3 | 0 | 1 | 7 | 0,6 | 991,5 |
| 26 | Petorca | 31-08-2026 06:15 | 9,3 | 96,4 | 0 | 0 | 44 | 0,6 | 991,3 |
| 25 | Petorca | 31-08-2026 06:00 | 9,7 | 96,2 | 0 | 0 | 25 | 0,6 | 991,3 |
| 24 | Petorca | 31-08-2026 05:45 | 10,1 | 96 | 0 | 0 | 18 | 0,6 | 991,3 |
| 23 | Petorca | 31-08-2026 05:30 | 10,4 | 96,1 | 0 | 0 | 205 | 0,6 | 991,2 |
| 22 | Petorca | 31-08-2026 05:15 | 10,4 | 95,7 | 0 | 0 | 357 | 0,6 | 991,3 |
| 21 | Petorca | 31-08-2026 05:00 | 10,4 | 95,8 | 0,2 | 0 | 11 | 0,6 | 991,5 |
| 20 | Petorca | 31-08-2026 04:45 | 10,5 | 95,8 | 0,2 | 0 | 357 | 0,6 | 991,4 |
| 19 | Petorca | 31-08-2026 04:30 | 10,5 | 95,4 | 0 | 0 | 333 | 0,6 | 991,6 |
| 18 | Petorca | 31-08-2026 04:15 | 10,5 | 94,7 | 0 | 0 | 34 | 0,6 | 991,4 |
| 17 | Petorca | 31-08-2026 04:00 | 10,6 | 94,1 | 0 | 0 | 56 | 0,6 | 991,1 |
| 16 | Petorca | 31-08-2026 03:45 | 10,5 | 94,6 | 0 | 0,5 | 24 | 0,6 | 990,9 |
| 15 | Petorca | 31-08-2026 03:30 | 10,4 | 94,9 | 0 | 0 | 39 | 0,6 | 990,7 |
| 14 | Petorca | 31-08-2026 03:15 | 10,4 | 95 | 0 | 0 | 28 | 0,6 | 990,6 |
| 13 | Petorca | 31-08-2026 03:00 | 10,4 | 94,9 | 0 | 0 | 21 | 0,6 | 990,4 |
| 12 | Petorca | 31-08-2026 02:45 | 10,4 | 94,5 | 0 | 0 | 8 | 0,6 | 990,2 |
| 11 | Petorca | 31-08-2026 02:30 | 10,5 | 93,4 | 0 | 0 | 357 | 0,6 | 990,2 |
| 10 | Petorca | 31-08-2026 02:15 | 10,6 | 92,3 | 0,4 | 0 | 352 | 0,6 | 990,2 |
| 9 | Petorca | 31-08-2026 02:00 | 10,7 | 91,5 | 0,2 | 0 | 93 | 0,6 | 990,1 |
| 8 | Petorca | 31-08-2026 01:45 | 11,2 | 89 | 0,4 | 0 | 107 | 0,6 | 989,9 |
| 7 | Petorca | 31-08-2026 01:30 | 11,3 | 90,7 | 0,4 | 0 | 35 | 0,6 | 990 |
| 6 | Petorca | 31-08-2026 01:15 | 11,5 | 93,5 | 0,2 | 0,5 | 58 | 0,6 | 990 |
| 5 | Petorca | 31-08-2026 01:00 | 11,7 | 93,5 | 0,2 | 0 | 354 | 0,6 | 989,9 |
| 4 | Petorca | 31-08-2026 00:45 | 11,8 | 93,4 | 0,2 | 0 | 351 | 0,6 | 990 |
| 3 | Petorca | 31-08-2026 00:30 | 11,9 | 92 | 0 | 0 | 44 | 0,6 | 989,6 |
| 2 | Petorca | 31-08-2026 00:15 | 12,2 | 90,2 | 0 | 0 | 66 | 0,6 | 989,7 |
| 1 | Petorca | 31-08-2026 00:00 | 12,2 | 89,8 | 0 | 0,5 | 220 | 0,6 | 989,6 |